FW6558 Weather Reports


Display with metric or nautical units.
time (UTC)temp
F
wind
direction
speed
MPH
gust
MPH
rain 1hr
in
rain 24hr
in
rain mn
in
humidity
%
barometer
mb
20260509231306 64 274 5.0 10.0 0.00 0.00 0.00 51 1010.7
20260509230306 65 292 12.0 16.0 0.00 0.00 0.00 48 1010.0
20260509225806 66 294 13.0 18.0 0.00 0.00 0.00 47 1009.8
20260509225306 65 274 8.0 13.0 0.00 0.00 0.00 50 1010.2
20260509224806 66 290 8.0 14.0 0.00 0.00 0.00 48 1010.0
20260509224306 66 282 6.0 17.0 0.00 0.00 0.00 49 1009.8
20260509221806 67 274 9.0 20.0 0.00 0.00 0.00 47 1009.7
20260509220806 68 282 9.0 17.0 0.00 0.00 0.00 44 1009.3
20260509220306 68 299 8.0 12.0 0.00 0.00 0.00 46 1009.7
20260509215805 66 264 8.0 9.0 0.00 0.00 0.00 48 1010.0
20260509215306 64 294 7.0 14.0 0.00 0.00 0.00 51 1010.7
20260509214806 65 292 10.0 14.0 0.00 0.00 0.00 50 1010.0
20260509214305 67 275 10.0 17.0 0.00 0.00 0.00 48 1009.8
20260509213806 65 288 9.0 13.0 0.00 0.00 0.00 51 1009.8
20260509213305 66 279 7.0 10.0 0.00 0.00 0.00 50 1009.8
20260509212806 68 254 7.0 9.0 0.00 0.00 0.00 48 1009.5
20260509212306 68 288 6.0 9.0 0.00 0.00 0.00 49 1009.3
20260509211806 66 290 7.0 15.0 0.00 0.00 0.00 51 1009.6
20260509211305 67 282 11.0 14.0 0.00 0.00 0.00 48 1009.4
20260509210806 68 276 8.0 17.0 0.00 0.00 0.00 47 1009.2
20260509210305 68 252 8.0 16.0 0.00 0.00 0.00 46 1009.0
20260509205805 67 271 11.0 17.0 0.00 0.00 0.00 47 1009.2
20260509205307 67 274 14.0 20.0 0.00 0.00 0.00 47 1009.3
20260509204305 68 300 10.0 15.0 0.00 0.00 0.00 49 1009.0
20260509203805 66 276 10.0 23.0 0.00 0.00 0.00 50 1009.2
20260509202806 66 268 14.0 18.0 0.00 0.00 0.00 50 1010.6
20260509202307 66 269 13.0 17.0 0.00 0.00 0.00 49 1012.6
20260509201305 66 268 15.0 20.0 0.00 0.00 0.00 49 1009.2
20260509200806 66 278 12.0 22.0 0.00 0.00 0.00 50 1009.6
20260509200306 66 269 15.0 28.0 0.00 0.00 0.00 49 1009.1
20260509195805 67 274 17.0 23.0 0.00 0.00 0.00 46 1009.0
20260509195306 67 238 13.0 22.0 0.00 0.00 0.00 47 1008.8
20260509194806 68 278 9.0 20.0 0.00 0.00 0.00 48 1008.7
20260509194306 67 298 8.0 13.0 0.00 0.00 0.00 52 1009.0
20260509193805 67 272 5.0 20.0 0.00 0.00 0.00 48 1009.0
20260509193305 68 255 14.0 18.0 0.00 0.00 0.00 45 1008.9
20260509192805 66 278 10.0 18.0 0.00 0.00 0.00 46 1009.1
20260509192306 67 273 12.0 18.0 0.00 0.00 0.00 46 1009.0
20260509191805 67 300 10.0 16.0 0.00 0.00 0.00 45 1009.0
20260509191305 67 283 12.0 16.0 0.00 0.00 0.00 43 1008.8
20260509190806 68 284 12.0 15.0 0.00 0.00 0.00 42 1008.9
20260509190305 67 307 7.0 20.0 0.00 0.00 0.00 46 1008.8
20260509185806 67 264 13.0 20.0 0.00 0.00 0.00 45 1008.7
20260509184306 67 291 7.0 14.0 0.00 0.00 0.00 48 1008.9
20260509183305 68 266 13.0 21.0 0.00 0.00 0.00 46 1008.8
20260509182805 68 277 10.0 18.0 0.00 0.00 0.00 46 1008.6
20260509182307 69 275 13.0 17.0 0.00 0.00 0.00 44 1008.2
20260509181805 68 298 5.0 14.0 0.00 0.00 0.00 47 1008.7
20260509181305 66 262 6.0 14.0 0.00 0.00 0.00 52 1009.1
20260509180805 66 305 7.0 16.0 0.00 0.00 0.00 51 1009.2
20260509180305 67 275 6.0 12.0 0.00 0.00 0.00 47 1009.1
20260509175805 67 276 5.0 9.0 0.00 0.00 0.00 51 1009.3
20260509175307 67 265 9.0 16.0 0.00 0.00 0.00 50 1009.4
20260509174805 68 55 1.0 6.0 0.00 0.00 0.00 53 1008.8
20260509174305 64 235 6.0 8.0 0.00 0.00 0.00 57 1010.0
20260509173805 64 235 6.0 8.0 0.00 0.00 0.00 57 1010.0
20260509173305 64 269 6.0 12.0 0.00 0.00 0.00 52 1009.9
20260509172805 65 288 4.0 12.0 0.00 0.00 0.00 53 1009.9
20260509172306 64 296 8.0 15.0 0.00 0.00 0.00 55 1010.3
20260509171305 64 269 9.0 20.0 0.00 0.00 0.00 53 1010.2
20260509170805 64 290 12.0 16.0 0.00 0.00 0.00 53 1010.1
20260509170305 64 295 6.0 8.0 0.00 0.00 0.00 54 1010.2
20260509165804 65 290 5.0 8.0 0.00 0.00 0.00 55 1009.9
20260509165306 65 291 2.0 7.0 0.00 0.00 0.00 57 1010.2
20260509164304 62 298 4.0 12.0 0.00 0.00 0.00 57 1010.9
20260509163805 62 232 7.0 12.0 0.00 0.00 0.00 55 1011.3
20260509163305 62 270 9.0 12.0 0.00 0.00 0.00 56 1011.4
20260509162805 62 273 4.0 12.0 0.00 0.00 0.00 56 1011.3
20260509162307 62 287 5.0 13.0 0.00 0.00 0.00 56 1011.1
20260509161805 62 310 5.0 9.0 0.00 0.00 0.00 58 1011.1
20260509161305 62 276 5.0 8.0 0.00 0.00 0.00 57 1011.4
20260509160804 61 304 3.0 8.0 0.00 0.00 0.00 62 1011.4
20260509160305 61 286 4.0 8.0 0.00 0.00 0.00 58 1011.5
20260509155804 61 275 6.0 8.0 0.00 0.00 0.00 61 1011.3
20260509155306 61 313 5.0 8.0 0.00 0.00 0.00 59 1011.3
20260509154804 61 279 7.0 13.0 0.00 0.00 0.00 57 1011.3
20260509154305 62 276 9.0 12.0 0.00 0.00 0.00 57 1010.9
20260509153805 61 280 5.0 9.0 0.00 0.00 0.00 58 1011.1
20260509153304 61 278 7.0 10.0 0.00 0.00 0.00 59 1011.2
20260509152805 61 268 6.0 14.0 0.00 0.00 0.00 58 1011.0
20260509151304 60 268 10.0 14.0 0.00 0.00 0.00 57 1011.3
20260509150305 61 283 3.0 10.0 0.00 0.00 0.00 58 1011.0
20260509145306 61 233 3.0 9.0 0.00 0.00 0.00 57 1011.1
20260509144305 61 170 3.0 17.0 0.00 0.00 0.00 55 1011.2
20260509143304 61 251 3.0 12.0 0.00 0.00 0.00 59 1011.1
20260509142804 61 268 6.0 10.0 0.00 0.00 0.00 56 1011.3
20260509142307 61 234 3.0 7.0 0.00 0.00 0.00 57 1010.8
20260509141805 60 241 3.0 8.0 0.00 0.00 0.00 62 1011.4
20260509141304 59 233 6.0 8.0 0.00 0.00 0.00 63 1011.7
20260509140804 59 236 4.0 8.0 0.00 0.00 0.00 64 1011.6
20260509135804 59 229 5.0 9.0 0.00 0.00 0.00 66 1011.7
20260509135306 58 219 3.0 9.0 0.00 0.00 0.00 69 1011.9
20260509134804 58 197 4.0 7.0 0.00 0.00 0.00 70 1011.7
20260509134304 58 24 2.0 7.0 0.00 0.00 0.00 75 1011.8
20260509133804 56 66 4.0 7.0 0.00 0.00 0.00 77 1012.1
20260509133305 56 43 5.0 7.0 0.00 0.00 0.00 77 1012.4
20260509132804 55 35 5.0 8.0 0.00 0.00 0.00 77 1012.8
20260509132306 55 46 5.0 8.0 0.00 0.00 0.00 77 1012.2
20260509130805 54 67 2.0 5.0 0.00 0.00 0.00 81 1013.2
20260509130304 52 72 2.0 5.0 0.00 0.00 0.00 84 1013.3
20260509125804 51 58 2.0 5.0 0.00 0.00 0.00 87 1013.7
20260509124804 51 39 1.0 3.0 0.00 0.00 0.00 87 1014.2
20260509124305 51 54 2.0 3.0 0.00 0.00 0.00 86 1014.1
20260509123804 52 63 3.0 3.0 0.00 0.00 0.00 85 1013.9
20260509121804 51 262 0.0 1.0 0.00 0.00 0.00 87 1014.5
20260509120804 49 263 0.0 0.0 0.00 0.00 0.00 88 1014.9
20260509120304 49 263 0.0 0.0 0.00 0.00 0.00 89 1015.0
20260509115804 49 263 0.0 1.0 0.00 0.00 0.00 90 1014.9
20260509115307 48 263 0.0 1.0 0.00 0.00 0.00 91 1015.3
20260509114804 48 263 1.0 2.0 0.00 0.00 0.00 92 1015.5
20260509114304 47 263 1.0 2.0 0.00 0.00 0.00 92 1015.5
20260509113803 47 263 2.0 3.0 0.00 0.00 0.00 92 1015.7
20260509113304 47 262 1.0 2.0 0.00 0.00 0.00 92 1015.8
20260509112804 46 259 2.0 2.0 0.00 0.00 0.00 92 1015.4
20260509111804 46 236 1.0 1.0 0.00 0.00 0.00 91 1015.2
20260509111304 46 235 0.0 2.0 0.00 0.00 0.00 91 1015.4
20260509110804 47 261 0.0 1.0 0.00 0.00 0.00 91 1015.2
20260509105804 47 179 1.0 2.0 0.00 0.00 0.00 90 1014.8
20260509104804 47 251 0.0 1.0 0.00 0.00 0.00 90 1014.7
20260509104304 48 260 0.0 1.0 0.00 0.00 0.00 89 1014.8
20260509103803 48 260 1.0 1.0 0.00 0.00 0.00 90 1014.9
20260509103304 48 260 1.0 2.0 0.00 0.00 0.00 90 1014.6
20260509102804 48 260 1.0 2.0 0.00 0.00 0.00 89 1014.5
20260509102306 48 260 1.0 2.0 0.00 0.00 0.00 89 1014.6
20260509101304 49 261 1.0 3.0 0.00 0.00 0.00 86 1014.2
20260509100803 49 236 1.0 3.0 0.00 0.00 0.00 87 1014.2
20260509100304 49 237 1.0 1.0 0.00 0.00 0.00 88 1014.1
20260509095804 48 237 0.0 1.0 0.00 0.00 0.00 89 1014.0
20260509094804 49 228 0.0 1.0 0.00 0.00 0.00 86 1013.9
20260509094304 49 228 0.0 2.0 0.00 0.00 0.00 87 1013.9
20260509093804 49 229 2.0 2.0 0.00 0.00 0.00 87 1014.2
20260509092804 49 254 2.0 5.0 0.00 0.00 0.00 87 1014.6
20260509092305 48 289 3.0 5.0 0.00 0.00 0.00 87 1014.4
20260509091804 48 279 3.0 5.0 0.00 0.00 0.00 87 1014.5
20260509091303 48 233 2.0 5.0 0.00 0.00 0.00 87 1014.5
20260509090808 48 258 1.0 3.0 0.00 0.00 0.00 87 1014.4
20260509090307 48 296 2.0 5.0 0.00 0.00 0.00 87 1014.3
20260509085808 49 206 2.0 5.0 0.00 0.00 0.00 86 1014.4
20260509084807 50 288 2.0 6.0 0.00 0.00 0.00 83 1014.1
20260509083807 50 278 2.0 6.0 0.00 0.00 0.00 82 1013.9
20260509083307 50 170 2.0 6.0 0.00 0.00 0.00 83 1014.1
20260509082808 51 268 2.0 6.0 0.00 0.00 0.00 82 1014.0
20260509082307 51 258 3.0 6.0 0.00 0.00 0.00 83 1013.9
20260509081808 51 241 1.0 5.0 0.00 0.00 0.00 82 1014.1
20260509081308 51 220 2.0 7.0 0.00 0.00 0.00 82 1014.0
20260509080807 50 240 2.0 5.0 0.00 0.00 0.00 83 1014.1
20260509080308 50 246 2.0 3.0 0.00 0.00 0.00 83 1014.0
20260509075808 50 266 1.0 2.0 0.00 0.00 0.00 83 1014.2
20260509075307 50 256 1.0 2.0 0.00 0.00 0.00 83 1014.3
20260509074808 50 239 1.0 3.0 0.00 0.00 0.00 83 1014.2
20260509074307 50 274 2.0 5.0 0.00 0.00 0.00 82 1014.3
20260509073808 50 263 2.0 3.0 0.00 0.00 0.00 82 1014.2
20260509073307 50 208 2.0 5.0 0.00 0.00 0.00 83 1014.2
20260509072807 50 287 2.0 5.0 0.00 0.00 0.00 82 1014.4
20260509072307 49 244 2.0 2.0 0.00 0.00 0.00 82 1014.3
20260509071807 50 240 1.0 3.0 0.00 0.00 0.00 82 1014.3
20260509071307 50 242 2.0 3.0 0.00 0.00 0.00 82 1014.3
20260509070807 50 192 0.0 2.0 0.00 0.00 0.00 82 1014.5
20260509070308 50 170 0.0 1.0 0.00 0.00 0.00 83 1014.3
20260509065807 49 194 1.0 2.0 0.00 0.00 0.00 82 1014.6
20260509065307 50 269 1.0 2.0 0.00 0.00 0.00 82 1014.7
20260509064808 50 269 0.0 2.0 0.00 0.00 0.00 80 1014.6
20260509064307 51 254 1.0 6.0 0.00 0.00 0.00 79 1014.4
20260509063807 52 251 2.0 7.0 0.00 0.00 0.00 79 1014.4
20260509063307 51 183 2.0 7.0 0.00 0.00 0.00 79 1014.5
20260509062307 51 241 2.0 3.0 0.00 0.00 0.00 80 1014.8
20260509061807 52 207 2.0 3.0 0.00 0.00 0.00 78 1014.9
20260509060807 52 219 3.0 7.0 0.00 0.00 0.00 78 1014.6
20260509060307 52 250 0.0 7.0 0.00 0.00 0.00 77 1014.8
20260509055807 52 205 3.0 8.0 0.00 0.00 0.00 77 1014.9
20260509054807 51 223 2.0 5.0 0.00 0.00 0.00 78 1015.6
20260509054307 52 199 2.0 5.0 0.00 0.00 0.00 77 1015.3
20260509053806 52 234 3.0 6.0 0.00 0.00 0.00 76 1015.2
20260509052807 52 212 4.0 9.0 0.00 0.00 0.00 75 1015.2
20260509052307 52 211 5.0 9.0 0.00 0.00 0.00 75 1015.3
20260509051806 52 239 2.0 12.0 0.00 0.00 0.00 75 1015.3
20260509051307 52 239 6.0 12.0 0.00 0.00 0.00 75 1015.2
20260509050807 53 238 2.0 8.0 0.00 0.00 0.00 74 1015.4
20260509050306 52 186 5.0 8.0 0.00 0.00 0.00 74 1015.4
20260509045807 52 215 5.0 8.0 0.00 0.00 0.00 75 1015.5
20260509045307 52 254 3.0 7.0 0.00 0.00 0.00 75 1015.7
20260509044807 52 279 2.0 5.0 0.00 0.00 0.00 74 1015.4
20260509044307 52 209 2.0 8.0 0.00 0.00 0.00 73 1015.4
20260509043307 52 230 1.0 5.0 0.00 0.00 0.00 73 1015.3
20260509042806 52 195 2.0 7.0 0.00 0.00 0.00 73 1015.2
20260509042307 52 256 0.0 2.0 0.00 0.00 0.00 73 1015.4
20260509041807 52 123 1.0 8.0 0.00 0.00 0.00 72 1015.5
20260509041306 52 249 3.0 8.0 0.00 0.00 0.00 72 1015.4
20260509040807 53 270 1.0 5.0 0.00 0.00 0.00 71 1015.3
20260509040306 53 198 2.0 5.0 0.00 0.00 0.00 71 1015.4
20260509035307 53 237 3.0 10.0 0.00 0.00 0.00 70 1015.3
20260509034807 53 188 2.0 9.0 0.00 0.00 0.00 70 1015.5
20260509034306 53 264 2.0 6.0 0.00 0.00 0.00 70 1015.6
20260509033807 53 237 3.0 5.0 0.00 0.00 0.00 70 1015.5
20260509033306 53 178 2.0 7.0 0.00 0.00 0.00 69 1015.5
20260509032806 53 240 3.0 7.0 0.00 0.00 0.00 69 1015.6
20260509032307 54 247 2.0 8.0 0.00 0.00 0.00 68 1015.4
20260509031807 54 215 3.0 6.0 0.00 0.00 0.00 68 1015.5
20260509031307 54 228 3.0 8.0 0.00 0.00 0.00 67 1015.5
20260509030807 54 211 5.0 7.0 0.00 0.00 0.00 67 1015.5
20260509030306 54 180 3.0 6.0 0.00 0.00 0.00 67 1015.5
20260509025806 54 254 2.0 6.0 0.00 0.00 0.00 66 1015.5
20260509025307 54 242 2.0 7.0 0.00 0.00 0.00 66 1015.6
20260509024806 54 222 4.0 9.0 0.00 0.00 0.00 66 1015.6
20260509024307 54 195 7.0 9.0 0.00 0.00 0.00 65 1015.8
20260509023806 54 252 3.0 10.0 0.00 0.00 0.00 65 1015.5
20260509023307 54 231 3.0 6.0 0.00 0.00 0.00 64 1015.6
20260509022307 55 196 5.0 9.0 0.00 0.00 0.00 63 1015.3
20260509021807 55 265 2.0 7.0 0.00 0.00 0.00 62 1015.2
20260509021306 55 263 4.0 10.0 0.00 0.00 0.00 62 1015.5
20260509020807 55 209 7.0 8.0 0.00 0.00 0.00 61 1015.3
20260509020307 55 209 7.0 9.0 0.00 0.00 0.00 61 1015.5
20260509015806 55 248 5.0 9.0 0.00 0.00 0.00 61 1015.4
20260509015306 55 181 5.0 8.0 0.00 0.00 0.00 60 1015.5
20260509014807 55 219 5.0 8.0 0.00 0.00 0.00 60 1015.3
20260509014306 55 210 4.0 9.0 0.00 0.00 0.00 60 1015.4
20260509013807 55 239 5.0 9.0 0.00 0.00 0.00 59 1015.1
20260509013306 55 233 3.0 3.0 0.00 0.00 0.00 59 1015.1
20260509012806 55 182 3.0 5.0 0.00 0.00 0.00 59 1015.0
20260509012307 56 226 3.0 5.0 0.00 0.00 0.00 57 1015.1
20260509011806 56 227 4.0 13.0 0.00 0.00 0.00 57 1015.0
20260509011306 55 167 8.0 13.0 0.00 0.00 0.00 57 1014.9
20260509010807 55 232 2.0 7.0 0.00 0.00 0.00 56 1014.8
20260509010306 56 205 3.0 7.0 0.00 0.00 0.00 55 1014.7
20260509005806 56 209 4.0 12.0 0.00 0.00 0.00 54 1014.8
20260509005306 56 240 4.0 7.0 0.00 0.00 0.00 54 1014.8
20260509004806 56 247 4.0 14.0 0.00 0.00 0.00 53 1014.6
20260509004306 56 240 5.0 9.0 0.00 0.00 0.00 52 1014.4
20260509003306 56 217 5.0 8.0 0.00 0.00 0.00 51 1014.4
20260509002806 57 216 2.0 6.0 0.00 0.00 0.00 50 1014.5
20260509002307 57 223 2.0 10.0 0.00 0.00 0.00 49 1014.4
20260509001806 57 226 6.0 10.0 0.00 0.00 0.00 48 1014.1
20260509000806 58 195 6.0 9.0 0.00 0.00 0.00 47 1014.0
20260509000306 58 205 5.0 9.0 0.00 0.00 0.00 47 1013.9
20260508235805 58 222 3.0 10.0 0.00 0.00 0.00 45 1014.1
20260508235307 59 222 3.0 10.0 0.00 0.00 0.00 44 1013.8
20260508234806 59 220 5.0 13.0 0.00 0.00 0.00 43 1014.0
20260508234306 59 184 5.0 13.0 0.00 0.00 0.00 42 1013.8
20260508233806 60 208 6.0 13.0 0.00 0.00 0.00 41 1013.7
20260508233306 60 211 7.0 14.0 0.00 0.00 0.00 41 1013.6
20260508232807 60 228 5.0 13.0 0.00 0.00 0.00 40 1013.5
20260508232307 61 151 7.0 13.0 0.00 0.00 0.00 39 1013.3